ランキン彗星

C/2020 B3 ( Rankin )

English version
Home page
Updated on June 13, 2020

---------------------------------------------------------------------

・ プロフィール

発見日 2020年1月29日
発見光度 19.3等
発見者 David Rankin (Mount Lemmon Survey)

・ 写真集

・ 軌道要素

Epoch 2019 Oct. 4.0 TT = JDT 2458760.5
T 2019 Oct. 19.89151 TT                                 Rudenko
q   3.3445013            (2000.0)            P               Q
z  +0.0004355      Peri.  325.09088     -0.87016631     -0.49144988
 +/-0.0000082      Node   185.82617     +0.49271021     -0.86878739
e   0.9985436      Incl.   20.70106     -0.00687359     -0.06070818
From 173 observations 2020 Jan. 25-May 25, mean residual 0".5.

・ 光度変化

        m1 = 10.5 + 5 logΔ + 10.0 log r

---------------------------------------------------------------------

軌道要素はM.P.E.C. 2020-L06に掲載されたものです。
光度グラフはComet for Windowsで作成したものです。

---------------------------------------------------------------------

Copyright(C) Seiichi Yoshida (comet@aerith.net). All rights reserved.